Weather History for KMKG - September, 2012

Change the Weather History Date:

Friday, September 21, 2012

  Actual Average Record
Temperature  
Mean Temperature 58 °F 60 °F  
Max Temperature 68 °F 69 °F 86 °F (1941)
Min Temperature 48 °F 51 °F 31 °F (1962)
Degree Days  
Heating Degree Days 7 6  
Month to date heating degree days 58 73  
Since 1 July heating degree days 70 103  
Cooling Degree Days 0 1  
Month to date cooling degree days 74 48  
Year to date cooling degree days 925 555  
Growing Degree Days 8 (Base 50)    
Moisture  
Dew Point 45 °F    
Average Humidity 61    
Maximum Humidity 86    
Minimum Humidity 35    
Precipitation  
Precipitation 0.13 in 0.15 in 3.46 in (1947)
Month to date precipitation 0.99 2.72  
Year to date precipitation 21.23 23.30  
Snow  
Snow 0.00 in 0.00 in - ()
Month to date snowfall 0.0 0.0  
Since 1 July snowfall 0.0 0.0  
Since 1 September snowfall 0.0 0.0  
Snow Depth 0.00 in    
Sea Level Pressure  
Sea Level Pressure 29.84 in    
Wind  
Wind Speed 10 mph (SW)    
Max Wind Speed 24 mph    
Max Gust Speed 38 mph    
Visibility 10 miles    
Events Rain    
T = Trace of Precipitation, MM = Missing Value Source: NWS Daily Summary

Daily Weather History Graph

Daily Weather History Graph

Search for Another Location

Airport or City:

Trip Planner

Search our weather history database for the weather conditions in past years. The results will help you decide how hot, cold, wet, or windy it might be!

Date:

Astronomy

Sep. 21, 2012 Rise Set
Actual Time 7:31 AM EDT 7:43 PM EDT
Civil Twilight 7:03 AM EDT 8:11 PM EDT
Nautical Twilight 6:29 AM EDT 8:44 PM EDT
Astronomical Twilight 5:55 AM EDT 9:18 PM EDT
Moon 2:02 PM EDT (9/21) 11:33 PM EDT (9/21)
Length of Visible Light 13h 08m
Length of Day
12h 11m
Waxing Crescent, 37% of the Moon is Illuminated
Sep 21
Waxing Crescent
Sep 22
First Quarter
Sep 29
Full
Oct 8
Last Quarter
Oct 15
New

Hourly Weather History & Observations

Time (EDT) Temp. Dew Point Humidity Pressure Visibility Wind Dir Wind Speed Gust Speed Precip Events Conditions
12:55 AM 59.0 °F 39.9 °F 49% 29.88 in 10.0 mi West 8.1 mph - N/A   Mostly Cloudy
1:55 AM 57.9 °F 42.1 °F 56% 29.89 in 10.0 mi North 5.8 mph - N/A   Scattered Clouds
2:55 AM 54.0 °F 44.1 °F 69% 29.91 in 10.0 mi Calm Calm - N/A   Partly Cloudy
3:55 AM 50.0 °F 44.1 °F 80% 29.91 in 10.0 mi SW 3.5 mph - N/A   Clear
4:55 AM 48.9 °F 43.0 °F 80% 29.90 in 10.0 mi Calm Calm - N/A   Clear
5:55 AM 50.0 °F 43.0 °F 77% 29.90 in 10.0 mi ESE 3.5 mph - N/A   Clear
6:55 AM 48.9 °F 44.1 °F 83% 29.89 in 10.0 mi SE 3.5 mph - N/A   Clear
7:55 AM 48.9 °F 44.1 °F 83% 29.89 in 10.0 mi Calm Calm - N/A   Mostly Cloudy
8:55 AM 51.1 °F 46.0 °F 83% 29.88 in 10.0 mi SE 4.6 mph - N/A   Partly Cloudy
9:55 AM 62.1 °F 42.1 °F 48% 29.88 in 10.0 mi SW 9.2 mph - N/A   Mostly Cloudy
10:55 AM 66.0 °F 39.0 °F 37% 29.88 in 10.0 mi WSW 15.0 mph - N/A   Clear
11:55 AM 68.0 °F 39.9 °F 36% 29.86 in 10.0 mi SW 17.3 mph 28.8 mph N/A   Mostly Cloudy
12:55 PM 66.0 °F 42.1 °F 42% 29.85 in 10.0 mi WSW 17.3 mph 28.8 mph N/A   Mostly Cloudy
1:55 PM 62.1 °F 44.1 °F 52% 29.87 in 10.0 mi WSW 18.4 mph 26.5 mph 0.00 in Rain Light Rain
2:55 PM 59.0 °F 46.0 °F 62% 29.86 in 10.0 mi West 12.7 mph 20.7 mph 0.00 in Rain Light Rain
3:55 PM 59.0 °F 46.0 °F 62% 29.85 in 10.0 mi WSW 12.7 mph 21.9 mph 0.00 in   Overcast
4:55 PM 59.0 °F 46.9 °F 64% 29.83 in 10.0 mi WSW 10.4 mph - N/A   Overcast
5:55 PM 59.0 °F 46.9 °F 64% 29.81 in 10.0 mi WSW 12.7 mph - N/A   Overcast
6:55 PM 59.0 °F 46.0 °F 62% 29.81 in 10.0 mi SW 18.4 mph 24.2 mph 0.00 in   Overcast
7:35 PM 57.2 °F 48.2 °F 72% 29.80 in 10.0 mi WSW 16.1 mph 24.2 mph N/A   Overcast
7:55 PM 57.9 °F 48.0 °F 70% 29.81 in 10.0 mi SW 15.0 mph 23.0 mph N/A   Overcast
8:16 PM 57.2 °F 48.2 °F 72% 29.80 in 10.0 mi SW 12.7 mph 23.0 mph N/A   Overcast
8:50 PM 57.2 °F 48.2 °F 72% 29.80 in 10.0 mi SW 11.5 mph - N/A   Overcast
8:55 PM 57.9 °F 48.0 °F 70% 29.81 in 10.0 mi SW 13.8 mph - N/A   Overcast
9:04 PM 57.2 °F 48.2 °F 72% 29.80 in 10.0 mi SW 16.1 mph - N/A   Overcast
9:55 PM 57.9 °F 48.0 °F 70% 29.79 in 10.0 mi SSW 11.5 mph - N/A   Mostly Cloudy
10:26 PM 57.2 °F 48.2 °F 72% 29.78 in 10.0 mi SSW 10.4 mph - N/A   Mostly Cloudy
10:55 PM 57.9 °F 48.0 °F 70% 29.77 in 10.0 mi SW 10.4 mph 18.4 mph N/A   Overcast
11:41 PM 59.0 °F 48.2 °F 67% 29.74 in 10.0 mi WSW 10.4 mph - N/A   Mostly Cloudy
11:55 PM 57.9 °F 48.0 °F 70% 29.74 in 10.0 mi WSW 10.4 mph - N/A   Mostly Cloudy